N226T YSCN-YSBK

Flight info

Callsign N226T
Flight time 0h 11m
Altitude 2000
Route INGL DCT CSTH
Aircraft C182/L-SDGRY/S

Departure

Time 2026-05-04 08:02
Airport Camden Airport (YSCN)

Arrival

Time 2026-05-04 08:13
Airport Sydney Bankstown Airport (YSBK)
Time Latitude Longitude Altitude Speed Heading
2026-05-04 07:29 -34.04311 150.68913 228 ft 0 kts 247°
2026-05-04 07:38 -34.04310 150.68914 226 ft 0 kts 246°
2026-05-04 07:49 -34.04310 150.68915 226 ft 0 kts 246°
2026-05-04 07:51 -34.04310 150.68914 226 ft 0 kts 261°
2026-05-04 07:51 -34.04309 150.68911 226 ft 0 kts 315°
2026-05-04 07:52 -34.04305 150.68910 228 ft 1 kts 17°
2026-05-04 07:52 -34.04300 150.68912 229 ft 1 kts 21°
2026-05-04 07:52 -34.04293 150.68915 229 ft 3 kts 22°
2026-05-04 07:52 -34.04276 150.68913 231 ft 3 kts 314°
2026-05-04 07:53 -34.04247 150.68881 232 ft 8 kts 321°
2026-05-04 07:54 -34.04056 150.68643 226 ft 1 kts 263°
2026-05-04 07:55 -34.04057 150.68631 226 ft 5 kts 268°
2026-05-04 07:55 -34.04059 150.68543 225 ft 15 kts 266°
2026-05-04 07:55 -34.04063 150.68422 226 ft 14 kts 268°
2026-05-04 07:55 -34.04066 150.68315 225 ft 13 kts 269°
2026-05-04 07:56 -34.04077 150.68209 223 ft 13 kts 250°
2026-05-04 07:56 -34.04077 150.68160 222 ft 0 kts 308°
2026-05-04 07:58 -34.04078 150.68160 222 ft 0 kts 308°
2026-05-04 07:59 -34.04078 150.68161 222 ft 0 kts 308°
2026-05-04 08:00 -34.04064 150.68145 222 ft 9 kts 324°
2026-05-04 08:00 -34.04016 150.68174 224 ft 11 kts 62°
2026-05-04 08:00 -34.03962 150.68301 224 ft 37 kts 67°
2026-05-04 08:02 -34.02281 150.72444 1964 ft 107 kts 60°
2026-05-04 08:02 -34.01912 150.73338 2020 ft 130 kts 59°
2026-05-04 08:02 -34.01580 150.74424 2015 ft 144 kts 70°
2026-05-04 08:03 -34.01243 150.75554 2014 ft 142 kts 61°
2026-05-04 08:03 -34.00842 150.76632 2002 ft 140 kts 57°
2026-05-04 08:03 -34.00419 150.77691 2004 ft 140 kts 58°
2026-05-04 08:03 -33.99996 150.78751 2002 ft 141 kts 57°
2026-05-04 08:04 -33.99573 150.79815 2003 ft 141 kts 57°
2026-05-04 08:04 -33.99151 150.80875 2001 ft 140 kts 58°
2026-05-04 08:04 -33.98728 150.81935 2003 ft 141 kts 57°
2026-05-04 08:04 -33.98308 150.82983 2005 ft 141 kts 57°
2026-05-04 08:05 -33.97882 150.84048 2013 ft 142 kts 57°
2026-05-04 08:05 -33.97452 150.85119 2011 ft 143 kts 57°
2026-05-04 08:05 -33.97083 150.86232 1995 ft 146 kts 70°
2026-05-04 08:05 -33.96907 150.87445 1996 ft 147 kts 73°
2026-05-04 08:06 -33.96724 150.88661 1993 ft 147 kts 73°
2026-05-04 08:06 -33.96541 150.89853 1993 ft 142 kts 72°
2026-05-04 08:06 -33.96358 150.91016 1990 ft 140 kts 72°
2026-05-04 08:06 -33.96178 150.92167 1991 ft 140 kts 72°
2026-05-04 08:08 -33.93191 150.98265 2003 ft 121 kts 27°
2026-05-04 08:08 -33.92475 150.98816 1927 ft 126 kts 29°
2026-05-04 08:10 -33.93728 151.05679 1498 ft 148 kts 233°
2026-05-04 08:11 -33.94390 151.04754 1318 ft 138 kts 241°
2026-05-04 08:11 -33.94387 151.02933 819 ft 97 kts 306°
2026-05-04 08:11 -33.94034 151.02266 708 ft 98 kts 308°
2026-05-04 08:12 -33.93686 151.01638 570 ft 87 kts 311°
2026-05-04 08:12 -33.93353 151.01056 413 ft 82 kts 309°
2026-05-04 08:12 -33.93045 151.00500 281 ft 78 kts 309°
2026-05-04 08:12 -33.92755 150.99973 148 ft 74 kts 311°
2026-05-04 08:13 -33.92479 150.99496 32 ft 61 kts 312°
2026-05-04 08:13 -33.92336 150.99247 26 ft 14 kts 305°
2026-05-04 08:13 -33.92299 150.99249 27 ft 3 kts 33°
2026-05-04 08:13 -33.92292 150.99255 27 ft 0 kts 35°
2026-05-04 08:14 -33.92275 150.99265 28 ft 7 kts
2026-05-04 08:14 -33.92236 150.99210 28 ft 10 kts 304°
2026-05-04 08:16 -33.92063 150.99435 31 ft 0 kts 293°